GW0507 Weather Reports


Display with metric or nautical units.
time (UTC)temp
F
wind
direction
speed
MPH
gust
MPH
rain 1hr
in
rain 24hr
in
rain mn
in
humidity
%
barometer
mb
20260508033041 44 296 2.0 7.0 0.00 0.77 0.00 96 1001.8
20260508031541 44 248 3.0 6.0 0.00 0.77 0.00 96 1002.0
20260508030038 45 221 1.0 5.0 0.00 0.77 0.00 96 1002.0
20260508024535 46 5 4.0 7.0 0.00 0.77 0.77 97 1002.2
20260508023035 45 68 2.0 10.0 0.00 0.77 0.77 96 1001.9
20260508021538 45 75 3.0 6.0 0.00 0.77 0.77 96 1002.1
20260508020042 47 223 1.0 4.0 0.00 0.77 0.77 96 1002.0
20260508014534 50 302 5.0 10.0 0.00 0.77 0.77 97 1001.6
20260508013033 49 312 5.0 10.0 0.00 0.77 0.77 97 1001.5
20260508011535 48 170 2.0 10.0 0.00 0.77 0.77 97 1001.2
20260508010035 46 33 3.0 4.0 0.00 0.77 0.77 96 1001.4
20260508004538 46 15 3.0 5.0 0.00 0.77 0.77 97 1001.4
20260508003033 45 338 2.0 4.0 0.00 0.77 0.77 97 1001.6
20260508001533 46 100 7.0 10.0 0.00 0.77 0.77 96 1001.5
20260508000040 46 313 1.0 8.0 0.00 0.77 0.77 96 1001.7
20260507234539 47 156 9.0 12.0 0.00 0.77 0.77 97 1001.4
20260507233034 47 66 2.0 4.0 0.00 0.77 0.77 96 1001.4
20260507231540 47 24 2.0 4.0 0.00 0.77 0.77 96 1001.5
20260507230033 46 53 3.0 5.0 0.00 0.77 0.77 96 1001.7
20260507224535 46 90 3.0 8.0 0.00 0.77 0.77 96 1001.4
20260507223035 47 133 1.0 5.0 0.00 0.77 0.77 96 1001.3
20260507221534 45 44 2.0 5.0 0.00 0.77 0.77 97 1001.7
20260507220041 44 120 10.0 15.0 0.00 0.77 0.77 95 1001.8
20260507214541 46 106 3.0 9.0 0.01 0.77 0.77 95 1002.0
20260507213045 46 119 12.0 15.0 0.04 0.77 0.77 95 1001.7
20260507211536 48 200 7.0 14.0 0.13 0.77 0.77 95 1002.5
20260507210045 49 189 7.0 15.0 0.17 0.77 0.77 96 1001.8
20260507204545 49 151 8.0 13.0 0.23 0.76 0.76 96 1001.7
20260507203044 49 146 8.0 14.0 0.25 0.72 0.72 97 1002.6
20260507201541 48 154 11.0 15.0 0.24 0.64 0.64 97 1002.7
20260507200038 48 136 10.0 13.0 0.25 0.59 0.59 95 1003.0
20260507194536 52 153 6.0 16.0 0.26 0.52 0.52 93 1003.6
20260507193034 53 229 8.0 15.0 0.33 0.46 0.46 97 1003.9
20260507191534 49 192 4.0 19.0 0.31 0.39 0.39 95 1003.9
20260507190036 48 157 5.0 11.0 0.26 0.33 0.33 95 1004.0
20260507184533 49 151 6.0 13.0 0.18 0.25 0.25 94 1004.3
20260507183042 52 215 7.0 19.0 0.07 0.13 0.13 94 1004.4
20260507181535 52 139 10.0 19.0 0.01 0.07 0.07 94 1004.5
20260507180035 48 235 5.0 12.0 0.00 0.07 0.07 92 1004.4
20260507174535 51 198 9.0 21.0 0.00 0.06 0.06 92 1004.3
20260507173042 52 244 11.0 20.0 0.00 0.06 0.06 93 1004.3
20260507171550 52 175 11.0 28.0 0.00 0.06 0.06 91 1004.9
20260507170034 53 182 13.0 26.0 0.00 0.06 0.06 91 1004.8
20260507164535 53 169 14.0 32.0 0.00 0.06 0.06 91 1005.0
20260507163034 53 167 11.0 26.0 0.00 0.06 0.06 90 1005.5
20260507161533 54 143 14.0 33.0 0.00 0.06 0.06 90 1005.8
20260507160034 54 143 13.0 34.0 0.00 0.06 0.06 91 1006.1
20260507154536 56 142 17.0 35.0 0.00 0.06 0.06 89 1006.5
20260507153030 54 221 14.0 28.0 0.00 0.06 0.06 89 1006.6
20260507151537 55 207 16.0 29.0 0.00 0.06 0.06 90 1006.9
20260507150034 54 229 12.0 33.0 0.00 0.06 0.06 90 1006.9
20260507144547 54 172 15.0 31.0 0.00 0.06 0.06 89 1007.5
20260507143034 54 59 14.0 29.0 0.00 0.06 0.06 91 1007.8
20260507141535 56 224 20.0 39.0 0.00 0.06 0.06 89 1007.9
20260507140036 56 169 17.0 38.0 0.00 0.06 0.06 88 1008.1
20260507134535 57 153 17.0 35.0 0.00 0.06 0.06 88 1008.0
20260507133042 55 348 13.0 32.0 0.00 0.06 0.06 89 1008.1
20260507131541 54 113 12.0 24.0 0.00 0.06 0.06 90 1008.6
20260507130039 53 221 11.0 24.0 0.01 0.06 0.06 92 1008.5
20260507124537 52 182 10.0 31.0 0.03 0.06 0.06 92 1008.9
20260507123036 52 62 11.0 25.0 0.05 0.06 0.06 93 1009.1
20260507121535 52 180 11.0 38.0 0.06 0.06 0.06 93 1009.3
20260507120034 53 226 16.0 27.0 0.04 0.04 0.04 93 1009.7
20260507114535 53 226 16.0 33.0 0.02 0.02 0.02 94 1010.0
20260507113041 52 136 12.0 31.0 0.00 0.00 0.00 93 1010.2
20260507111544 51 175 12.0 24.0 0.00 0.00 0.00 93 1010.4
20260507110037 51 158 11.0 25.0 0.00 0.00 0.00 94 1010.3
20260507104535 51 161 15.0 25.0 0.00 0.00 0.00 96 1010.3
20260507103037 49 176 14.0 20.0 0.00 0.00 0.00 97 1010.8
20260507101544 49 152 9.0 18.0 0.00 0.00 0.00 96 1010.9
20260507100044 49 107 10.0 17.0 0.00 0.00 0.00 97 1011.1
20260507094546 48 124 8.0 17.0 0.00 0.00 0.00 97 1011.5
20260507093042 48 159 8.0 15.0 0.00 0.00 0.00 98 1012.1
20260507091536 42 66 8.0 10.0 0.00 0.00 0.00 96 1011.8
20260507090037 41 66 7.0 12.0 0.00 0.00 0.00 96 1012.2
20260507084537 41 85 11.0 16.0 0.00 0.00 0.00 96 1012.2
20260507083042 42 77 9.0 12.0 0.00 0.00 0.00 96 1011.8
20260507081539 42 88 9.0 11.0 0.00 0.00 0.00 96 1012.2
20260507080040 45 94 11.0 15.0 0.00 0.00 0.00 96 1012.4
20260507074536 48 126 11.0 17.0 0.00 0.00 0.00 98 1012.6
20260507073034 42 90 13.0 18.0 0.00 0.00 0.00 95 1012.8
20260507071542 43 123 15.0 22.0 0.00 0.00 0.00 96 1013.1
20260507070034 42 117 18.0 23.0 0.00 0.00 0.00 95 1012.9
20260507064540 42 117 14.0 20.0 0.00 0.00 0.00 94 1013.1
20260507063045 42 111 16.0 19.0 0.00 0.00 0.00 93 1013.1
20260507061535 43 117 14.0 16.0 0.00 0.00 0.00 90 1013.4
20260507060052 44 113 10.0 17.0 0.00 0.00 0.00 89 1013.6
20260507054547 48 60 2.0 11.0 0.00 0.00 0.00 82 1013.6
20260507053042 48 11 2.0 16.0 0.00 0.00 0.00 77 1013.9
20260507051541 56 205 7.0 17.0 0.00 0.00 0.00 80 1014.0
20260507050038 54 225 7.0 14.0 0.00 0.00 0.00 81 1014.4
20260507044548 55 159 6.0 21.0 0.00 0.00 0.00 77 1014.5
20260507043035 58 230 11.0 20.0 0.00 0.00 0.00 74 1014.7
20260507041535 58 213 11.0 21.0 0.00 0.00 0.00 76 1015.0
20260507040041 58 207 12.0 25.0 0.00 0.00 0.00 77 1015.1
20260507034541 57 200 8.0 17.0 0.00 0.00 0.00 78 1015.2